Flag for U.S.A. Weather past 2 weeks in Berkeley, California, U.S.A.

Now
45 °F

Passing clouds.


Feels Like: 45 °F
Forecast: 47 / 61 °F
Wind: No wind

Location: Metro Oakland International Airport

Current Time: Jan 29, 2015 at 4:48:19 AM

Latest Report: Jan 29, 2015 at 3:53 AM


Visibility: 10 mi

Pressure: 30.14 "Hg

Humidity: 90%

Dew point: 42 °F

Location of BerkeleyLocation

Historic Weather in Berkeley — Graph

°F

Berkeley temperature yesterday

Maximum temperature yesterday: 62 °F (at 3:53 PM)
Minimum temperature yesterday: 44 °F (at 5:53 AM)
Average temperature yesterday: 53 °F

Past Weeks' High & Low Weather Summary

 TemperatureHumidityPressure
High69 °F (Jan 24, 12:53 PM)97% (Jan 15, 8:53 AM)30.37 "Hg (Jan 15, 8:53 AM)
Low39 °F (Jan 14, 7:53 AM)35% (Jan 24, 11:53 AM)29.96 "Hg (Jan 26, 1:53 PM)
Average52 °F78%30.20 "Hg
* Reported Jan 14 2:53 AM — Jan 29 2:53 AM, Berkeley, Weather by CustomWeather, © 2014

Note: Actual official high and low records may vary slightly from our data, if they occured in-between our weather recording intervals... More about our weather records

Advertising

Berkeley weather history for previous 24 hours

 ConditionsComfort  
Time TempWeatherWind HumidityBarometerVisibility
2:53 AM
Jan 29
46 °FPassing clouds.5 mph89%30.16 "Hg10 mi
1:53 AM48 °FPassing clouds.3 mph89%30.16 "Hg10 mi
12:53 AM47 °FPassing clouds.3 mph93%30.16 "Hg10 mi
11:53 PM
Jan 28
48 °FPassing clouds.No wind89%30.17 "Hg10 mi
10:53 PM49 °FFog.3 mph93%30.17 "Hg6 mi
9:53 PM53 °FPassing clouds.No wind93%30.17 "Hg10 mi
8:53 PM54 °FPassing clouds.6 mph90%30.17 "Hg10 mi
7:53 PM55 °FPassing clouds.6 mph87%30.17 "Hg10 mi
6:53 PM55 °FClear.5 mph83%30.17 "Hg10 mi
5:53 PM58 °FPassing clouds.5 mph72%30.17 "Hg10 mi
4:53 PM60 °FPartly sunny.5 mph58%30.16 "Hg10 mi
3:53 PM62 °FPartly sunny.No wind54%30.17 "Hg10 mi
2:53 PM61 °FPartly sunny.No wind56%30.18 "Hg10 mi
1:53 PM60 °FPartly sunny.6 mph62%30.20 "Hg10 mi
12:53 PM58 °FScattered clouds.5 mph70%30.21 "Hg10 mi
11:53 AM58 °FPassing clouds.6 mph70%30.24 "Hg10 mi
10:53 AM57 °FPassing clouds.8 mph72%30.27 "Hg10 mi
9:53 AM57 °FPassing clouds.8 mph69%30.27 "Hg10 mi
8:53 AM55 °FPassing clouds.No wind83%30.27 "Hg10 mi
7:53 AM48 °FPassing clouds.No wind89%30.25 "Hg10 mi
6:53 AM46 °FFog.No wind89%30.25 "Hg10 mi
5:53 AM44 °FPassing clouds.No wind93%30.25 "Hg10 mi
4:53 AM46 °FPassing clouds.3 mph89%30.24 "Hg10 mi
Weather by CustomWeather, © 2014

See weather overviewHow to use our weather pages